Cavern City Air Terminal Carlsbad US
ICAO: KCNM
IATA: CNM
Category: Medium
Scheduled Services: Yes

Elevation: 3295 ft
TransAlt. 18000 ft.

Airport Communications:
ASOS:118.375
ALBUQUERQUE CNTR:135.875
ALBUQUERQUE RDO:122.65
CTAF/UNICOM:122.95

KCNM Zoom In..

Runways:

(A) RW 03 length 7854 ft width 150 ft
ILS 111.90 / hdg 34

(B) RW 08 length 5334 ft width 75 ft
---- / hdg 80

(C) RW 14L length 4616 ft width 150 ft
---- / hdg 146

(D) RW 14R length 5837 ft width 100 ft
---- / hdg 144

(E) RW 21 length 7854 ft width 150 ft
---- / hdg 214

(F) RW 26 length 5334 ft width 75 ft
---- / hdg 260

(G) RW 32L length 5837 ft width 100 ft
---- / hdg 324

(H) RW 32R length 4616 ft width 150 ft
---- / hdg 326

Location; KCNM
Day. 19 / Time. 19.53 Zulu
* Altimeter: 30.17
* Temperature: 23° c. 73.4°f.
* Wind from: 150° Speed 17 kn with Gusts up to 27 kn.
Dewpoint: -03° c.
Visibility: 10 Statute Miles.
Clouds: Clear (automated report).

KCNM 191953Z AUTO 15017G27KT 10SM CLR 23/M03 A3017 RMK AO2 PK WND 12033/1912 SLP182 T02331033


Wind From 150°
Speed 17 kn.

  YouTube Music Video
 
jpsmedia.com for Web Design  worldairports.se 2018   terms of use